Airfield :
LOGIN :

Register | Disclaimer

   EN    FR    IT 

 










Legend :    VFR   Marginal VFR   IFR   Intensive IFR   Very Intensive IFR
Visi :
Ceiling :
>= 8 km
>= 3000ft
5 to 8 km
1000 to 3000 ft
1500m to 5 km
500 to 1000 ft
800 to 1500m
200 to 500 ft
< 800m
< 200 ft
Symbols :   Thunderstorms  Fog  Heavy snow  Heavy precipitations  Wind > 20 kt
SIGMETs :     Misc.  Thunderstorms  Icing  Turbulence  Mountain Waves  Volcanic Ashes







- Airport Elevation : 359 ft
- IATA code : BVA
- Download approach charts


LFOB - Beauvais

CURRENT METAR :
  • 151000Z AUTO 17005KT 130V200 CAVOK 21/13 Q1010 NOSIG

EXPIRED METARs :
  • 150930Z AUTO 14005KT 120V180 CAVOK 19/14 Q1010 NOSIG
  • 150900Z AUTO 13007KT CAVOK 18/14 Q1010 NOSIG
  • 150830Z AUTO 11005KT CAVOK 17/13 Q1010 NOSIG
  • 150800Z AUTO 12003KT CAVOK 17/13 Q1010 NOSIG
  • 150730Z AUTO 11004KT CAVOK 16/13 Q1009 NOSIG

TAF TAF LFOB
Valid from the 15 at 06:00 until the 16 at 06:00 UTC


150500Z 1506/1606 13005KT CAVOK
ATIS : +33 3 44 11 49 28
No reported NOTAMs for that airfield.



MET'MAP, your aeronautical weather chart ! - Copyright ORBIFLY December 2007 - Disclaimer

ORBIFLY MET'MAP TEAM :

Programming & Development : Alexandra Zaïnal
Concept & Development : Baudouin d'Aumeries
Co-Development & Prog : Marc-Olivier Méhu
Technical & hardware support : Manuel Goepfert

Contact : metmap@orbifly.com




SOURCES & CREDITS :

   NOAA